When you browse on this site, cookies collect data to enhance your experience and personalize the content and advertising you see.
Visit our Privacy Policy to learn more. By continuing to use the site, you agree to this use of cookies and data.
  • In Hungary
  • List of Countries
  • For 7 days
  • Water Temperature
  • Satellite Maps
  • Weather Map
  • News
  • Weather Widgets
  • user-avatar
    Login

    Hourly Weather Gorzyce

    Today, 19 December, Wednesday

    Time Temperature Precipitation Wind Pressure Humidity
    00:00 -1°C° 0 mm 2 mps 759 mmHg 95%
    01:00 -1°C° 0 mm 2 mps 759 mmHg 95%
    02:00 -1°C° 0 mm 3 mps 759 mmHg 93%
    03:00 -1°C° 0 mm 3 mps 758 mmHg 92%
    04:00 -2°C° 0 mm 4 mps 758 mmHg 90%
    05:00 -3°C° 0 mm 4 mps 758 mmHg 90%
    06:00 -3°C° 0 mm 4 mps 758 mmHg 89%
    07:00 -3°C° 0 mm 4 mps 758 mmHg 89%
    08:00 -4°C° 0 mm 5 mps 758 mmHg 86%
    09:00 -4°C° 0 mm 5 mps 757 mmHg 84%
    10:00 -4°C° 0 mm 6 mps 757 mmHg 81%
    11:00 -3°C° 0 mm 6 mps 757 mmHg 80%
    12:00 -3°C° 0 mm 6 mps 756 mmHg 79%
    13:00 -3°C° 0 mm 6 mps 756 mmHg 78%
    14:00 -2°C° 0 mm 5 mps 756 mmHg 79%
    15:00 -4°C° 0 mm 5 mps 755 mmHg 81%
    16:00 -4°C° 0 mm 5 mps 755 mmHg 82%
    17:00 -4°C° 0 mm 5 mps 755 mmHg 82%
    18:00 -3°C° 0 mm 4 mps 754 mmHg 82%
    19:00 -3°C° 0 mm 4 mps 754 mmHg 83%
    20:00 -3°C° 0 mm 4 mps 754 mmHg 83%
    21:00 -3°C° 0 mm 4 mps 754 mmHg 83%
    22:00 -3°C° 0 mm 4 mps 754 mmHg 83%
    23:00 -3°C° 0 mm 4 mps 754 mmHg 83%

    Tomorrow, 20 December, Thursday

    Time Temperature Precipitation Wind Pressure Humidity
    00:00 -3°C° 0 mm 4 mps 754 mmHg 84%
    01:00 -2°C° 0 mm 3 mps 753 mmHg 84%
    02:00 -2°C° 0.1 mm 3 mps 753 mmHg 85%
    03:00 -2°C° 0.1 mm 3 mps 753 mmHg 86%
    04:00 -2°C° 0.1 mm 3 mps 753 mmHg 87%
    05:00 -2°C° 0.2 mm 3 mps 753 mmHg 88%
    06:00 -2°C° 0.2 mm 3 mps 753 mmHg 89%
    07:00 -2°C° 0.2 mm 3 mps 753 mmHg 90%
    08:00 -1°C° 0.2 mm 3 mps 753 mmHg 90%
    09:00 -1°C° 0.2 mm 3 mps 753 mmHg 89%
    10:00 -1°C° 0.2 mm 3 mps 753 mmHg 89%
    11:00 -1°C° 0.1 mm 3 mps 753 mmHg 88%
    12:00 -1°C° 0.1 mm 3 mps 752 mmHg 88%
    13:00 -1°C° 0.1 mm 3 mps 752 mmHg 87%
    14:00 -1°C° 0.1 mm 3 mps 752 mmHg 89%
    15:00 -1°C° 0.1 mm 3 mps 752 mmHg 90%
    16:00 -1°C° 0.1 mm 2 mps 752 mmHg 92%
    17:00 -1°C° 0.1 mm 3 mps 752 mmHg 92%
    18:00 -1°C° 0.1 mm 3 mps 752 mmHg 93%
    19:00 -1°C° 0.1 mm 3 mps 752 mmHg 94%
    20:00 -1°C° 0.1 mm 3 mps 752 mmHg 94%
    21:00 -1°C° 0.1 mm 3 mps 752 mmHg 95%
    22:00 0°C° 0.1 mm 3 mps 752 mmHg 95%
    23:00 0°C° 0 mm 3 mps 752 mmHg 95%

    Day after tomorrow, 21 December, Friday

    Time Temperature Precipitation Wind Pressure Humidity
    00:00 0°C° 0 mm 3 mps 751 mmHg 95%
    01:00 0°C° 0 mm 3 mps 751 mmHg 95%
    02:00 0°C° 0 mm 3 mps 751 mmHg 95%
    03:00 0°C° 0 mm 3 mps 751 mmHg 95%
    04:00 0°C° 0 mm 3 mps 750 mmHg 95%
    05:00 0°C° 0 mm 3 mps 750 mmHg 95%
    06:00 0°C° 0 mm 3 mps 750 mmHg 95%
    07:00 0°C° 0 mm 3 mps 750 mmHg 95%
    08:00 0°C° 0 mm 3 mps 749 mmHg 95%
    09:00 0°C° 0 mm 3 mps 749 mmHg 95%
    10:00 +1°C° 0 mm 3 mps 749 mmHg 94%
    11:00 +1°C° 0.1 mm 3 mps 748 mmHg 95%
    12:00 +1°C° 0.1 mm 3 mps 748 mmHg 95%
    13:00 +1°C° 0.1 mm 3 mps 747 mmHg 95%
    14:00 +1°C° 0 mm 3 mps 747 mmHg 95%
    15:00 +1°C° 0 mm 3 mps 746 mmHg 95%
    16:00 0°C° 0 mm 3 mps 745 mmHg 95%
    17:00 -1°C° 0.1 mm 4 mps 745 mmHg 94%
    18:00 -1°C° 0.1 mm 4 mps 744 mmHg 94%
    19:00 -1°C° 0.1 mm 4 mps 743 mmHg 94%
    20:00 0°C° 0.4 mm 4 mps 742 mmHg 95%
    21:00 0°C° 0.4 mm 4 mps 741 mmHg 95%
    22:00 0°C° 0.4 mm 4 mps 740 mmHg 95%
    23:00 0°C° 1.8 mm 4 mps 740 mmHg 95%

    22 December, Saturday

    Time Temperature Precipitation Wind Pressure Humidity
    00:00 +1°C° 1.8 mm 4 mps 739 mmHg 95%
    01:00 +1°C° 1.8 mm 5 mps 739 mmHg 95%
    02:00 +2°C° 0.4 mm 5 mps 739 mmHg 91%
    03:00 +2°C° 0.4 mm 6 mps 738 mmHg 88%
    04:00 +3°C° 0.4 mm 7 mps 738 mmHg 84%
    05:00 +3°C° 0.1 mm 7 mps 739 mmHg 85%
    06:00 +3°C° 0.1 mm 7 mps 739 mmHg 86%
    07:00 +3°C° 0.1 mm 6 mps 739 mmHg 86%
    08:00 +3°C° 0.1 mm 6 mps 739 mmHg 87%
    09:00 +3°C° 0.1 mm 6 mps 740 mmHg 87%
    10:00 +3°C° 0.1 mm 7 mps 740 mmHg 88%
    11:00 +4°C° 0.1 mm 6 mps 740 mmHg 88%
    12:00 +4°C° 0.1 mm 6 mps 739 mmHg 88%
    13:00 +4°C° 0.1 mm 6 mps 739 mmHg 87%
    14:00 +4°C° 0.1 mm 6 mps 739 mmHg 88%
    15:00 +4°C° 0.1 mm 6 mps 739 mmHg 89%
    16:00 +5°C° 0.1 mm 5 mps 739 mmHg 90%
    17:00 +3°C° 0.2 mm 6 mps 740 mmHg 89%
    18:00 +3°C° 0.2 mm 6 mps 740 mmHg 87%
    19:00 +3°C° 0.2 mm 6 mps 741 mmHg 85%
    20:00 +3°C° 0.2 mm 7 mps 741 mmHg 86%
    21:00 +2°C° 0.2 mm 7 mps 742 mmHg 86%
    22:00 +1°C° 0.2 mm 8 mps 743 mmHg 87%
    23:00 0°C° 0.1 mm 7 mps 745 mmHg 87%

    23 December, Sunday

    Time Temperature Precipitation Wind Pressure Humidity
    00:00 +1°C° 0.1 mm 6 mps 746 mmHg 86%
    01:00 +1°C° 0.1 mm 6 mps 747 mmHg 86%
    02:00 0°C° 0 mm 5 mps 748 mmHg 88%
    03:00 0°C° 0 mm 4 mps 749 mmHg 91%
    04:00 0°C° 0 mm 4 mps 750 mmHg 93%
    05:00 0°C° 0 mm 3 mps 750 mmHg 94%
    06:00 +1°C° 0 mm 2 mps 750 mmHg 95%
    07:00 -1°C° 0 mm 2 mps 751 mmHg 95%
    08:00 +1°C° 0 mm 2 mps 751 mmHg 94%
    09:00 +2°C° 0 mm 1 mps 751 mmHg 93%
    10:00 +2°C° 0 mm 1 mps 752 mmHg 92%
    11:00 +3°C° 0 mm 1 mps 752 mmHg 90%
    12:00 +3°C° 0 mm 1 mps 752 mmHg 88%
    13:00 +4°C° 0 mm 1 mps 752 mmHg 86%
    14:00 +3°C° 0.4 mm 2 mps 752 mmHg 88%
    15:00 +3°C° 0.4 mm 2 mps 752 mmHg 91%
    16:00 +1°C° 0.4 mm 3 mps 752 mmHg 93%
    17:00 +2°C° 0.4 mm 3 mps 752 mmHg 92%
    18:00 +1°C° 0.4 mm 4 mps 752 mmHg 92%
    19:00 +1°C° 0.4 mm 4 mps 752 mmHg 91%
    20:00 +1°C° 0.3 mm 5 mps 751 mmHg 91%
    21:00 +1°C° 0.3 mm 5 mps 751 mmHg 90%
    22:00 +1°C° 0.3 mm 5 mps 751 mmHg 90%
    23:00 +2°C° 0.4 mm 5 mps 751 mmHg 89%

    24 December, Monday

    Time Temperature Precipitation Wind Pressure Humidity
    00:00 +2°C° 0.4 mm 5 mps 751 mmHg 89%
    01:00 +2°C° 0.4 mm 5 mps 751 mmHg 89%
    02:00 +2°C° 0.3 mm 5 mps 751 mmHg 89%
    03:00 +2°C° 0.3 mm 6 mps 751 mmHg 89%
    04:00 +2°C° 0.3 mm 6 mps 751 mmHg 89%
    05:00 +2°C° 0.1 mm 6 mps 751 mmHg 87%
    06:00 +2°C° 0.1 mm 7 mps 751 mmHg 85%
    07:00 +2°C° 0.1 mm 7 mps 752 mmHg 83%
    08:00 0°C° 0 mm 7 mps 753 mmHg 83%
    09:00 +1°C° 0 mm 6 mps 754 mmHg 83%
    10:00 +1°C° 0 mm 6 mps 754 mmHg 83%
    11:00 +1°C° 0 mm 5 mps 755 mmHg 81%
    12:00 +1°C° 0 mm 5 mps 755 mmHg 79%
    13:00 +3°C° 0 mm 4 mps 756 mmHg 76%
    14:00 +1°C° 0 mm 4 mps 756 mmHg 79%
    15:00 +1°C° 0 mm 4 mps 757 mmHg 82%
    16:00 +1°C° 0 mm 4 mps 757 mmHg 85%
    17:00 +1°C° 0.1 mm 4 mps 757 mmHg 86%
    18:00 0°C° 0.1 mm 4 mps 758 mmHg 87%
    19:00 0°C° 0.1 mm 4 mps 758 mmHg 88%
    20:00 +1°C° 0 mm 3 mps 758 mmHg 88%
    21:00 +1°C° 0 mm 3 mps 758 mmHg 88%
    22:00 0°C° 0 mm 3 mps 759 mmHg 88%
    23:00 0°C° 0 mm 3 mps 759 mmHg 89%
    Show more